SCP
0 0 0 0 0 0 0 0 0 0 0 0 0 0 0 0 0 0 0 0 0 0 0 0 0 0 0 0 0 0 0 0 0 0 0 0 0 0
0 0 0 0 0 0 0 0 0 0 0 0 0 0 0 0 0 0 0 0 0 0 0 0 0 0 0 0 0 0 0 0 0 0 0 0 0 0
0 0 0 0 0 0 0 0 0 0 0 0 0 0 0 0 0 0 0 0 0 0 0 0 0 0 0 0 0 0 0 0 0 0 0 0 0 0
0 0 0 0 0 0 0 0 0 0 0 0 0 0 0 0 0 0 0 0 0 0 0 0 0 0 0 0 0 0 0 0 0 0 0 0 0 0
0 0 0 0 0 0 0 0 0 0 0 0 0 0 0 0 0 0 0 0 0 0 0 0 0 0 0 0 0 0 0 0 0 0 0 0 0 0
0 0 0 0 0 0 0 0 0 0 0 0 0 0 0 0 0 0 0 0 0 0 0 0 0 0 0 0 0 0 0 0 0 0 0 0 0 0
0 0 0 0 0 0 0 0 0 0 0 0 0 0 0 0 0 0 0 0 0 0 0 0 0 0 0 0 0 0 0 0 0 0 0 0 0 0
0 0 0 0 0 0 0 0 0 0 0 0 0 0 0 0 0 0 0 0 0 0 0 0 0 0 0 0 0 0 0 0 0 0 0 0 0 0
0 0 0 0 0 0 0 0 0 0 0 0 0 0 0 0 0 0 0 0 0 0 0 0 0 0 0 0 0 0 0 0 0 0 0 0 0 0
0 0 0 0 0 0 -0 0 0 0 0 0 0 0 0 0 0 0 0 0 0 0 0 0 0 0 0 0 0 0 0 0 0 0 0 0 0 0
0 0 0 0 0 0 0 0 0 0 0 0 0 0 0 0 0 0 0 0 0 0 0 0 0 0 0 0 0 0 0 0 0 0 0 0 0 0
0 0 0 0 0 0 0 0 0 0 0 0 0 0 0 0 0 0 0 0 0 0 0 0 0 0 0 0 0 0 0 0 0 0 0 0 0 0
0 0 0 0 0 0 0 0 0 0 0 0 0 0 0 0 0 0 0 0 0 0 0 0 0 0 0 0 0 0 0 0 0 0 0 0 0 0
0 0 0 0 0 0 0 0 0 0 0 0 0 0 0 0 0 0 0 0 0 0 0 0 0 0 0 0 0 0 0 0 0 0 0 0 0 0
0 0 0 0 0 0 0 0 0 0 0 0 0 0 0 0 0 0 0 0 0 0 0 0 0 0 0 0 0 0 0 0 0 0 0 0 0 0
0 0 0 0 0 0 0 0 0 0 0 0 0 0 0 0 0 0 0 0 0 0 0 0 0 0 0 0 0 0 0 0 0 0 0 0 0 0
0 0 0 0 0 0 0 0 0 0 0 0 0 0 0 0 0 0 0 0 0 0 0 0 0 0 0 0 0 0 0 0 0 0 0 0 0 0
0 0 0 0 0 0 0 0 0 0 0 0 0 0 0 0 0 0 0 0 0 0 0 0 0 0 0 0 0 0 0 0 0 0 0 0 0 0
0 0 0 0 0 0 0 0 0 0 0 0 0 0 0 0 0 0 0 0 0 0 0 0 0 0 0 0 0 0 0 0 0 0 0 0 0 0
0 0 0 0 0 0 0 0 0 0 0 0 0 0 0 0 0 0 0 0 0 0 0 0 0 0 0 0 0 0 0 0 0 0 0 0 0 0
0 0 0 0 0 0 0 0 0 0 0 0 0 0 0 0 0 0 0 0 0 0 0 0 0 0 0 0 0 0 0 0 0 0 0 0 0 0
0 0 0 0 0 0 0 0 0 0 0 0 0 0 0 0 0 0 0 0 0 0 0 0 0 0 0 0 0 0 0 0 0 0 0 0 0 0
0 0 0 0 0 0 0 0 0 0 0 0 0 0 0 0 0 0 0 0 0 0 0 0 0 0 0 0 0 0 0 0 0 0 0 0 0 0
Wind_Speed
3 3 3 3 3 3 3 3 3 3 3 2 1 1 1 1 3 2 2 6 7 7 6 6 6 7 7 7 7 8 8 7 8 8 9 10 10 9
3 3 3 3 3 2 3 2 3 3 3 2 2 2 1 2 3 2 3 6 6 6 6 6 6 7 6 6 7 7 8 8 8 8 9 9 10 8
3 3 3 3 2 2 2 2 2 3 4 3 2 1 1 1 2 2 2 2 2 5 6 6 6 6 7 6 6 7 7 8 8 8 8 9 9 8
3 2 3 2 2 2 2 2 3 3 3 3 2 1 2 2 1 2 2 2 2 4 6 6 6 6 6 6 6 7 7 7 8 8 8 8 9 8
2 2 2 1 2 1 2 2 2 2 2 2 2 1 1 1 2 2 2 2 2 3 5 6 6 7 6 6 6 7 7 7 8 8 7 7 8 8
2 2 2 2 2 1 1 1 1 1 1 1 0 0 1 1 1 2 3 3 3 3 4 5 6 7 7 7 7 6 7 7 8 8 7 6 8 7
1 1 2 2 2 1 1 1 1 1 1 1 0 1 1 1 1 1 2 3 3 2 3 4 4 3 4 5 6 6 7 7 8 8 7 6 6 6
1 1 2 1 1 2 2 2 2 1 0 1 0 1 1 1 1 1 2 3 3 2 3 4 3 3 3 2 6 7 7 8 8 9 9 7 6 6
1 1 1 1 1 0 1 3 3 3 2 1 1 1 1 1 0 1 2 2 3 3 3 3 3 3 3 4 7 7 7 8 9 10 9 7 6 6
2 2 1 1 1 1 1 1 1 2 2 1 0 1 0 0 1 0 1 2 2 2 2 2 3 3 4 4 6 7 8 9 9 10 9 7 6 6
1 1 1 1 2 1 2 1 1 2 4 5 5 4 4 3 2 2 1 1 2 2 2 1 2 3 3 3 4 7 8 9 10 10 10 8 6 5
1 1 2 1 1 2 2 2 0 1 2 3 4 5 4 3 3 1 1 0 1 2 2 2 2 3 3 2 3 4 4 7 10 10 10 8 6 3
1 1 1 1 1 2 1 1 1 2 2 2 2 2 3 2 3 2 2 1 1 2 2 2 2 2 2 3 3 3 3 3 4 6 8 9 7 4
1 1 1 2 2 2 1 1 3 3 2 2 1 2 2 2 3 3 3 2 1 2 2 2 1 2 2 2 3 3 3 3 3 4 4 7 7 8
1 1 1 2 3 2 2 3 3 2 2 1 1 1 2 1 2 2 3 3 3 3 2 2 1 2 1 1 2 3 3 4 3 3 4 4 4 3
1 2 3 4 4 3 3 2 1 1 1 1 1 1 1 2 2 2 2 3 3 3 4 4 3 2 2 2 2 2 2 3 4 4 4 4 3 3
2 2 2 2 1 1 1 1 1 1 1 1 1 1 1 2 2 2 2 2 2 2 3 4 4 3 2 2 1 2 2 3 3 4 4 4 4 4
3 2 2 1 1 1 1 1 1 1 1 1 1 1 1 1 2 2 2 2 2 2 2 3 4 4 3 3 2 2 2 3 3 3 3 3 4 4
2 2 1 1 1 1 1 1 1 1 1 1 1 1 1 1 1 1 2 2 2 2 2 3 3 3 3 4 4 4 2 4 4 4 3 2 3 4
1 1 1 1 1 1 1 1 1 1 1 1 1 1 1 1 1 1 1 1 1 2 2 3 3 3 2 2 2 4 5 3 3 3 3 3 2 4
1 1 1 1 1 1 1 1 1 1 1 1 1 1 1 1 1 1 1 2 2 2 2 3 3 5 2 1 2 3 4 6 4 3 3 3 3 3
1 1 1 1 1 1 1 1 1 1 1 1 1 1 1 0 1 1 1 1 1 2 2 2 3 3 3 2 2 3 4 6 6 7 5 2 1 2
1 1 1 1 1 1 1 1 1 1 1 1 1 1 1 0 0 1 0 1 1 2 2 3 3 3 3 2 2 3 4 5 4 5 4 7 6 4
Wind_Direction
240 238 242 244 240 237 232 224 232 270 280 261 268 263 284 295 314 309 298 305 313 310 317 321 322 320 318 321 321 315 312 315 311 311 309 308 308 300
246 243 251 251 246 235 228 231 228 241 266 272 266 281 298 309 310 306 290 307 304 315 323 325 331 331 327 327 326 320 317 317 312 310 309 305 310 303
264 253 259 260 252 243 234 229 229 230 251 275 269 278 260 290 310 304 297 293 305 323 328 333 336 336 328 327 329 330 327 324 318 310 311 309 314 310
264 258 269 268 253 232 227 237 237 228 225 256 280 282 281 283 306 322 332 331 321 326 333 338 337 337 335 335 337 340 334 332 324 314 312 314 317 317
249 249 265 252 253 231 227 236 239 241 219 214 255 282 313 352 360 349 349 344 337 345 348 346 346 345 347 345 348 351 346 343 336 326 320 315 318 315
246 248 251 238 235 224 233 226 232 228 165 164 212 352 13 18 14 357 351 346 337 342 349 348 350 351 353 352 353 357 357 350 342 333 323 320 323 321
250 267 272 270 275 260 259 239 232 206 162 153 351 5 19 20 349 349 337 333 334 343 349 339 339 341 341 344 353 358 357 349 344 342 330 325 328 327
240 279 286 277 310 336 337 355 346 322 192 174 255 272 294 336 347 341 334 338 329 346 350 330 336 329 327 329 345 352 354 352 349 347 340 335 333 331
220 245 283 289 318 287 355 15 7 350 331 222 198 235 246 242 218 316 316 322 299 303 333 316 330 322 322 329 341 345 352 353 351 348 345 338 341 338
218 216 240 256 221 169 120 60 358 341 343 7 222 236 232 158 165 203 277 342 330 325 335 311 320 315 317 321 341 349 353 353 351 350 348 347 344 337
232 227 221 220 209 148 130 108 9 14 22 29 25 28 31 35 53 87 71 27 342 325 340 332 314 320 310 314 338 355 356 357 355 354 353 354 347 341
215 235 255 245 183 140 143 145 154 25 41 34 30 26 25 28 29 55 161 126 343 310 322 339 320 337 327 314 324 337 347 352 355 356 356 358 356 353
210 233 238 222 132 105 117 159 148 80 78 66 42 27 20 23 18 14 7 331 293 278 285 322 311 324 311 314 323 329 340 341 344 350 356 1 1 1
212 225 217 173 132 108 115 86 76 73 78 74 49 25 11 13 12 11 18 20 353 290 288 305 295 307 322 320 312 326 334 341 350 351 351 354 4 8
189 197 138 117 113 111 90 77 79 84 85 68 38 5 352 11 26 26 30 33 26 7 355 343 330 319 313 295 301 316 330 339 359 1 354 357 358 5
93 91 91 96 94 84 71 64 61 87 98 84 37 6 25 39 36 18 15 17 23 10 6 4 350 344 340 326 309 316 336 336 343 350 350 351 359 7
114 97 90 97 95 84 79 72 76 83 79 79 80 49 52 48 28 13 15 16 21 1 356 359 1 5 2 325 337 346 347 343 336 339 350 358 0 3
114 111 110 109 130 142 136 108 99 97 99 96 81 70 68 54 33 18 20 30 31 11 358 347 348 354 8 19 6 347 349 340 335 340 344 357 350 350
91 100 109 114 110 111 123 127 115 83 94 103 90 78 69 62 48 33 29 31 25 4 349 345 352 4 4 352 343 1 349 333 338 344 347 344 328 325
80 93 95 93 93 103 107 104 100 88 83 88 89 84 72 73 56 35 29 26 12 360 352 355 1 356 342 318 312 323 340 333 335 338 336 331 315 315
81 86 92 96 93 96 96 90 96 104 102 97 101 100 89 66 61 39 29 16 16 12 359 347 336 337 331 355 359 335 336 347 342 326 328 335 341 350
100 90 84 112 119 112 106 101 93 102 116 116 110 104 105 95 100 87 45 10 359 1 350 338 339 350 2 10 358 337 336 343 353 1 5 5 349 349
114 107 101 107 128 124 123 124 128 140 141 132 129 123 128 95 67 90 70 22 11 9 3 353 355 4 3 359 355 343 341 344 349 358 2 10 13 354